DateTimeUTC,F1_A11,F1_S11,BsB_S11,BsG_S11,BsR_S11,BbsB_S11,BbsG_S11,BbsR_S11,BaB_A11,BaG_A11,BaR_A11,Tu_S11,T_S11,Uu_S11,U_S11,P_S11,T1_A11
2021-08-26T06:00:00Z,00000200,20000000,,,,,,,0000.38,0000.20,0000.34,18.4,25.4,06.3,04.1,0670.7,31.0
2021-08-26T06:01:00Z,00000200,20000000,,,,,,,0000.45,0000.53,0000.23,18.4,25.4,06.3,04.1,0670.7,31.0
2021-08-26T06:02:00Z,00000200,20000000,,,,,,,-000.14,0000.08,0000.02,18.4,25.4,06.3,04.1,0670.7,31.0
2021-08-26T06:03:00Z,00000200,60000000,,,,,,,0001.50,0001.06,0001.18,18.5,25.4,06.2,04.1,0670.7,31.0
2021-08-26T06:04:00Z,00000200,40000000,0009.66,0008.11,0006.08,0000.89,0001.26,0000.64,0001.81,0001.62,0001.24,18.9,25.4,06.3,04.3,0671.6,31.0
2021-08-26T06:05:00Z,00000200,00000000,0008.70,0007.71,0005.90,0001.31,0000.77,0000.69,0001.65,0001.82,0001.34,19.0,25.4,06.4,04.3,0671.7,31.0
2021-08-26T06:06:00Z,00000200,00000000,0009.07,0007.82,0005.62,0001.24,0001.19,0000.45,0001.77,0001.41,0001.45,19.0,25.4,06.3,04.3,0671.7,31.0
2021-08-26T06:07:00Z,00000200,00000000,0009.69,0007.78,0005.72,0001.15,0000.94,0000.57,0001.83,0001.66,0001.15,19.0,25.4,06.4,04.3,0671.7,31.0
2021-08-26T06:08:00Z,00000200,00000000,0010.42,0008.04,0005.59,0000.97,0001.33,0000.47,0001.97,0001.86,0001.48,19.0,25.4,06.3,04.3,0671.7,31.0
2021-08-26T06:09:00Z,00000200,00000000,0009.76,0008.27,0005.90,0001.39,0001.07,0000.69,0001.70,0001.97,0001.68,19.0,25.4,06.3,04.3,0671.7,31.0
2021-08-26T06:10:00Z,00000200,00000000,0009.92,0007.93,0005.90,0001.52,0000.92,0000.71,0002.11,0001.83,0001.11,19.0,25.3,06.5,04.4,0671.7,31.0
2021-08-26T06:11:00Z,00000200,00000000,0010.14,0008.23,0005.63,0000.71,0000.99,0000.39,0001.90,0001.81,0001.52,18.9,25.3,06.5,04.4,0671.7,31.0
2021-08-26T06:12:00Z,00000200,00000000,0010.13,0008.44,0005.95,0001.02,0001.22,0000.65,0002.10,0001.66,0001.75,18.9,25.3,06.6,04.5,0671.7,31.0
2021-08-26T06:13:00Z,00000200,00000000,0010.01,0008.13,0006.06,0001.44,0001.15,0000.44,0001.57,0001.62,0001.35,18.9,25.3,06.5,04.4,0671.7,31.0
2021-08-26T06:14:00Z,00000200,00000000,0009.66,0008.23,0005.89,0001.40,0000.96,0001.01,0002.30,0001.79,0001.64,18.9,25.3,06.6,04.4,0671.7,31.0
2021-08-26T06:15:00Z,00000200,00000000,0008.68,0008.28,0005.92,0001.35,0001.51,0000.87,0001.78,0002.01,0001.39,18.9,25.3,06.6,04.5,0671.7,31.0
2021-08-26T06:16:00Z,00000200,00000000,0009.69,0008.32,0005.66,0000.96,0001.15,0000.54,0002.07,0001.81,0001.27,18.9,25.3,06.6,04.5,0671.7,31.0
2021-08-26T06:17:00Z,00000200,00000000,0008.92,0008.85,0005.97,0000.99,0001.12,0000.34,0002.16,0001.91,0001.88,19.0,25.3,06.6,04.5,0671.7,31.0
2021-08-26T06:18:00Z,00000200,00000000,0010.02,0008.50,0006.00,0001.41,0000.97,0000.91,0001.65,0001.42,0000.93,19.0,25.3,06.7,04.5,0671.7,31.0
2021-08-26T06:19:00Z,00000200,00000000,0010.44,0008.23,0005.56,0001.00,0000.76,0000.78,0001.88,0001.89,0001.72,19.0,25.3,06.7,04.6,0671.7,31.0
2021-08-26T06:20:00Z,00000200,00000000,0009.21,0008.55,0005.76,0001.35,0000.99,0000.64,0001.99,0002.06,0001.84,19.0,25.3,06.7,04.5,0671.7,31.0
2021-08-26T06:21:00Z,00000200,00000000,0009.75,0008.10,0005.94,0001.13,0001.13,0000.82,0001.68,0001.60,0001.06,19.0,25.3,06.6,04.5,0671.7,31.0
2021-08-26T06:22:00Z,00000200,00000000,0009.78,0007.68,0005.49,0000.98,0000.98,0000.41,0001.87,0001.58,0001.49,19.0,25.3,06.7,04.5,0671.7,31.0
2021-08-26T06:23:00Z,00000200,00000000,0009.64,0008.30,0005.64,0000.82,0001.33,0000.56,0002.03,0002.10,0001.32,19.0,25.3,06.7,04.5,0671.7,31.0
2021-08-26T06:24:00Z,00000200,00000000,0010.81,0007.82,0005.91,0001.60,0001.27,0000.79,0001.90,0001.60,0001.57,19.0,25.3,06.7,04.6,0671.7,31.0
2021-08-26T06:25:00Z,00000200,00000000,0010.23,0007.89,0005.73,0001.08,0001.41,0000.37,0001.70,0001.41,0001.37,18.9,25.3,06.7,04.6,0671.7,31.0
2021-08-26T06:26:00Z,00000200,00000000,0010.24,0007.97,0005.89,0000.89,0001.19,0000.66,0002.12,0002.26,0001.65,18.9,25.3,06.7,04.6,0671.7,31.0
2021-08-26T06:27:00Z,00000200,00000000,0009.91,0008.46,0005.63,0001.21,0001.38,0000.51,0002.07,0001.66,0001.22,18.9,25.3,06.9,04.7,0671.7,31.0
2021-08-26T06:28:00Z,00000200,00000000,0009.59,0008.17,0005.75,0001.53,0000.90,0000.54,0002.07,0001.88,0001.53,18.9,25.3,06.9,04.7,0671.6,31.0
2021-08-26T06:29:00Z,00000200,00000000,0010.20,0008.48,0005.67,0000.98,0001.22,0000.47,0001.66,0001.91,0001.48,18.9,25.3,06.9,04.7,0671.6,31.0
2021-08-26T06:30:00Z,00000200,00000000,0010.36,0007.84,0005.36,0001.28,0000.98,0000.57,0001.85,0001.60,0001.31,18.9,25.3,06.9,04.7,0671.7,31.0
2021-08-26T06:31:00Z,00000200,00000000,0009.46,0008.29,0006.13,0001.54,0001.06,0000.48,0001.65,0001.44,0001.17,18.9,25.3,06.9,04.6,0671.7,31.0
2021-08-26T06:32:00Z,00000200,00000000,0009.64,0008.37,0005.86,0001.33,0001.10,0000.96,0001.49,0001.40,0002.05,18.9,25.3,06.9,04.7,0671.7,31.0
2021-08-26T06:33:00Z,00000200,00000000,0009.90,0008.08,0005.94,0001.46,0001.17,0000.67,0002.37,0002.16,0001.24,18.9,25.3,06.8,04.6,0671.7,31.0
2021-08-26T06:34:00Z,00000200,00000000,0009.88,0008.17,0005.59,0001.37,0001.30,0000.13,0001.53,0001.60,0001.19,18.9,25.2,06.9,04.7,0671.7,31.0
2021-08-26T06:35:00Z,00000200,00000000,0008.97,0008.01,0005.74,0000.67,0001.09,0000.56,0001.98,0001.92,0001.17,18.8,25.2,07.0,04.7,0671.6,31.0
2021-08-26T06:36:00Z,00000200,00000000,0009.51,0007.49,0005.69,0001.10,0000.93,0000.70,0001.93,0001.58,0001.39,18.8,25.2,06.9,04.7,0671.6,31.0
2021-08-26T06:37:00Z,00000200,00000000,0009.41,0007.81,0005.66,0000.94,0000.94,0000.82,0001.76,0001.67,0001.70,18.8,25.2,06.9,04.7,0671.6,31.0
2021-08-26T06:38:00Z,00000200,00000000,0010.17,0007.59,0005.63,0001.35,0001.33,0000.68,0001.70,0001.57,0001.31,18.8,25.2,07.0,04.7,0671.6,31.0
2021-08-26T06:39:00Z,00000200,00000000,0009.55,0007.99,0005.67,0001.34,0001.22,0000.48,0001.89,0001.77,0001.51,18.8,25.2,07.1,04.8,0671.6,31.0
2021-08-26T06:40:00Z,00000200,00000000,0009.58,0008.42,0005.75,0001.38,0000.98,0000.66,0002.03,0001.71,0001.53,18.8,25.2,07.0,04.8,0671.6,31.0
2021-08-26T06:41:00Z,00000200,00000000,0010.07,0007.52,0005.53,0001.50,0000.66,0000.48,0001.60,0001.49,0001.01,18.8,25.2,07.0,04.7,0671.6,31.0
2021-08-26T06:42:00Z,00000200,00000000,0009.24,0008.07,0005.16,0001.08,0000.84,0000.53,0001.80,0001.96,0001.32,18.8,25.2,07.1,04.8,0671.6,31.0
2021-08-26T06:43:00Z,00000200,00000000,0010.33,0007.90,0005.58,0000.81,0001.06,0000.60,0002.02,0001.55,0001.73,18.8,25.2,07.0,04.7,0671.6,31.0
2021-08-26T06:44:00Z,00000200,00000000,0010.20,0007.76,0005.54,0000.81,0001.22,0000.54,0001.48,0001.79,0001.22,18.8,25.2,07.1,04.8,0671.6,31.0
2021-08-26T06:45:00Z,00000200,00000000,0009.82,0007.69,0005.97,0001.27,0001.13,0000.95,0002.14,0001.87,0001.43,18.8,25.2,07.0,04.7,0671.6,31.0
2021-08-26T06:46:00Z,00000200,00000000,0009.63,0007.84,0005.63,0001.36,0001.05,0000.54,0001.63,0001.92,0001.63,18.8,25.2,07.1,04.8,0671.6,31.0
2021-08-26T06:47:00Z,00000200,00000000,0009.53,0007.78,0005.53,0001.15,0001.31,0000.59,0002.27,0001.83,0001.44,18.8,25.2,07.0,04.8,0671.6,31.0
2021-08-26T06:48:00Z,00000200,00000000,0009.82,0008.03,0005.90,0000.93,0001.10,0001.04,0001.43,0001.26,0000.87,18.9,25.2,07.0,04.8,0671.6,31.0
2021-08-26T06:49:00Z,00000200,00000000,0009.67,0007.95,0005.55,0001.18,0001.09,0000.46,0001.99,0001.73,0001.83,18.9,25.3,07.0,04.7,0671.6,31.0
2021-08-26T06:50:00Z,00000200,00000000,0010.26,0008.06,0005.33,0001.00,0001.14,0000.36,0001.96,0001.58,0001.13,18.9,25.2,07.0,04.8,0671.6,31.0
2021-08-26T06:51:00Z,00000200,00000000,0009.67,0007.76,0005.52,0001.26,0000.83,0000.67,0001.54,0002.12,0001.49,18.9,25.2,06.9,04.7,0671.6,31.0
2021-08-26T06:52:00Z,00000200,00000000,0010.03,0008.52,0005.43,0001.37,0001.11,0000.61,0002.12,0001.69,0001.71,18.9,25.2,07.0,04.7,0671.6,31.0
2021-08-26T06:53:00Z,00000200,00000000,0009.62,0008.70,0005.49,0001.01,0001.08,0000.56,0001.86,0001.80,0001.38,18.9,25.2,07.0,04.8,0671.7,31.0
2021-08-26T06:54:00Z,00000200,00000000,0009.92,0008.15,0005.67,0000.56,0001.12,0000.55,0001.76,0001.62,0001.09,18.9,25.2,07.0,04.8,0671.7,31.0
2021-08-26T06:55:00Z,00000200,00000000,0010.18,0008.06,0005.89,0001.11,0001.09,0000.50,0001.96,0002.08,0001.56,18.9,25.2,07.2,04.9,0671.7,31.0
2021-08-26T06:56:00Z,00000200,00000000,0009.64,0008.47,0006.01,0001.39,0001.24,0000.62,0002.10,0001.57,0001.71,18.9,25.2,07.2,04.9,0671.7,31.0
2021-08-26T06:57:00Z,00000200,40000000,,,,,,,-000.02,0000.13,0000.31,18.9,25.2,07.3,05.0,0671.8,31.0
2021-08-26T06:58:00Z,00000200,60000000,,,,,,,0000.20,0000.05,-000.21,18.6,25.3,07.0,04.6,0670.7,31.0
2021-08-26T06:59:00Z,00000200,20000000,,,,,,,0000.01,0000.43,0000.21,18.6,25.4,07.0,04.6,0670.7,31.0
